Terminal Aerodrome Forecast
Issued by NWS

Home | Current Version | Previous Version | Graphics & Text | Print | Product List | Glossary On
Versions: 1 2 3 4 5 6 7 8 9 10 11 12 13 14 15 16 17 18 19 20 21
000
FTUS43 KBIS 241500 AAC
TAFMOT
TAF AMD
KMOT 241528Z 2415/2512 19010KT P6SM BKN010
     FM241800 23012KT P6SM -SHRA BKN010 OVC015
     FM250300 26012KT 5SM -SHRA BR OVC010=

USA.gov is the U.S. government's official web portal to all federal, state and local government web resources and services.